Location: Unspecified
(42.7170°S, 0.0000°E)
Time: 18:14:10
(UTC+00:00)

N. Korean satellite - Pass Details

Date: 31 May 2019
Orbit: 455 x 510 km, 97.2° (Epoch: 19 June)

Event Time Altitude Azimuth Distance (km) Brightness Sun altitude
Rises 05:31:37 0° 2° (N) 2,484 10.4 -19.3°
Reaches altitude 10° 05:33:40 10° 357° (N) 1,624 9.3 -18.9°
Maximum altitude 05:37:04 51° 279° (W) 608 6.6 -18.3°
Enters shadow 05:37:14 50° 268° (W) 613 6.6 -18.3°
